weather.gov     
National Weather Service

Regional Weather Roundup
NWS Homepage
This page is being discontinued on March 12, 2014.
The same data is available at this site. Please update your bookmarks.
Thank you, and we apologize for the inconvenience.
Please send an email to SR-SRH.Webmaster@noaa.gov with any concerns.


Current Version
Previous Version:    01  02  03  04  05  06  07  08  09  10  11  12  13  14  15  16  17  18  19  20  21  22  23  24  25  26  27  28  29  30  
   31  32  33  34  35  36  37  38  39  40  41  42  43  44  45  46  47  48  49  50  51  52  53  54  55  56  57  58  59  60  
[Printable]
794
ASUS43 KFSD 190310
RWRFSD

WEATHER ROUNDUP FOR SE SOUTH DAKOTA/SW MINNESOTA/NW IOWA
NATIONAL WEATHER SERVICE SIOUX FALLS SD
1000 PM CDT THU SEP 18 2014

NOTE: "FAIR" INDICATES FEW OR NO CLOUDS BELOW 12,000 FEET WITH NO
SIGNIFICANT WEATHER AND OR OBSTRUCTIONS TO VISIBILITY.


SDZ038>040-050-052>070-190400-
SOUTHEAST SOUTH DAKOTA

CITY           SKY/WX    TMP DP  RH WIND       PRES   REMARKS
CHAMBERLAIN    CLEAR     64  59  85 SE10      29.80S
HURON          PTCLDY    67  57  70 SE15G21   29.82S
MADISON        FAIR      63  59  88 S12G18    29.90F
MITCHELL       CLEAR     67  59  75 SE15      29.85S
SIOUX FALLS    MOCLDY    65  56  72 SE16G23   29.91S
WINNER         FAIR      70  62  76 S15       29.79F
YANKTON        PTCLDY    64  57  77 SE15      29.90R
$$

MNZ071-072-080-081-089-090-097-098-190400-
SOUTHWEST MINNESOTA

CITY           SKY/WX    TMP DP  RH WIND       PRES   REMARKS
FAIRMONT       CLEAR     57  43  58 S8        30.00S
JACKSON        PTCLDY    61  46  59 SE12      29.99F
LUVERNE        PTCLDY    63  55  77 S8        29.95S
MARSHALL       PTCLDY    63  48  59 S13       29.91S
MONTEVIDEO     PTCLDY    64  52  63 S10       29.91S
PIPESTONE      PTCLDY    61  54  77 S10       29.94S
REDWOOD FALLS  CLEAR     61  50  67 S15       29.93F
TRACY          PTCLDY    63  52  67 S13       29.94F
WINDOM         CLEAR     61  50  67 SE12      29.97F
WORTHINGTON    PTCLDY    61  52  72 S12       29.97F
$$

IAZ001>003-012>014-020>022-031-032-NEZ013-014-SDZ071-190400-
NORTHWEST IOWA

CITY           SKY/WX    TMP DP  RH WIND       PRES   REMARKS
CHEROKEE       CLEAR     60  55  84 SE7       29.98F
DENISON        CLEAR     61  55  82 SE5       29.99R
ESTHERVILLE    PTCLDY    60  50  69 S13       30.00R
LE MARS          N/A     63  57  82 SE8G18    29.96S
ORANGE CITY    CLEAR     63  55  77 SE8       29.96S
SHELDON        CLEAR     61  55  82 SE13      29.96S
SIOUX CITY     CLEAR     64  57  78 SE12      29.94F
SPENCER        MOCLDY    61  52  72 SE12      29.99S
STORM LAKE     CLEAR     57  55  94 SE9       30.00F
$$

ABBREVIATIONS USED IN REMARKS
   TC - TEMPERATURE IN CELSIUS
  WCI - WIND CHILL INDEX
   HX - HEAT INDEX
  VSB - VISIBILITY





U.S. Dept. of Commerce
NOAA National Weather Service
1325 East West Highway
Silver Spring, MD 20910
E-mail: w-nws.webmaster@noaa.gov
Page last modified: May 16, 2007
NATIONAL WEATHER SERVICE: for Safety, for Work, for Fun - FOR LIFE